GFSFLT1_con_lsi_000.txt.gz
Lid_Strength_Index
11 12 13 14 15 15 15 15 15 15 15 15 15 14 15 16 16 16 16 17 18 18 18 18 18 18 18 19 19 19 19 19
12 12 12 12 14 15 15 15 16 16 15 16 16 16 16 16 16 16 17 17 18 17 18 18 18 18 18 19 19 19 20 20
13 12 12 12 11 12 13 14 14 15 15 16 16 16 17 16 16 16 17 17 17 17 18 18 18 18 18 19 19 20 20 20
13 13 12 12 12 12 12 12 13 13 15 15 15 16 16 15 15 16 16 17 17 17 18 18 18 18 18 19 19 20 20 20
14 13 12 12 12 13 13 13 13 13 15 15 15 15 14 14 15 16 16 17 17 17 17 17 18 18 18 19 19 20 19 19
13 13 12 12 12 13 13 13 13 14 14 13 14 15 14 14 15 16 16 16 17 17 17 18 18 18 18 19 19 20 20 20
12 11 12 12 13 13 13 13 13 14 14 13 13 14 15 15 15 16 16 17 17 17 17 18 18 15 15 17 19 19 20 21
13 13 13 12 12 13 13 12 13 13 13 13 14 15 14 15 16 17 17 17 17 17 18 18 18 15 14 15 19 19 20 20
14 14 14 13 13 13 12 12 13 13 13 14 14 15 16 17 17 18 18 17 18 17 17 17 18 15 14 15 18 19 20 21
13 14 14 14 14 13 15 14 13 13 13 14 15 15 16 17 17 17 17 18 17 17 17 17 18 15 13 15 19 19 20 20
13 14 14 14 13 15 16 15 15 14 14 15 16 17 17 18 18 17 16 17 17 18 17 18 18 15 14 15 19 20 21 20
13 14 14 13 15 16 16 16 15 16 16 14 14 16 17 16 19 18 18 19 19 20 19 19 18 17 13 13 18 19 20 21
14 15 14 14 15 16 17 16 16 16 16 15 15 15 17 18 18 18 18 19 21 21 22 20 19 17 14 13 17 17 19 20
15 16 15 15 16 17 17 17 18 18 18 18 17 14 16 17 18 19 19 19 21 21 22 21 20 18 14 12 15 15 19 19
15 16 17 16 16 17 18 18 20 21 21 20 20 17 15 16 17 18 19 19 19 21 21 21 21 20 17 14 14 16 18 17
15 16 17 17 18 19 19 20 22 22 22 22 21 20 16 16 16 17 17 17 18 19 19 20 21 20 17 15 16 17 19 18
16 17 18 19 20 20 21 22 23 24 23 22 21 20 18 17 17 14 14 15 14 15 17 18 17 17 16 14 14 15 15 19
19 20 21 22 22 22 22 23 24 25 25 24 23 21 20 17 18 19 17 14 14 14 14 15 16 16 15 14 13 14 15 21
21 22 23 23 24 23 23 23 24 24 23 23 23 22 20 18 17 17 19 20 18 14 14 13 14 14 15 13 12 15 17 22
23 24 24 25 25 24 24 24 24 24 23 22 21 20 19 18 16 17 18 19 19 17 14 13 13 14 13 12 15 17 22 22

GFSFLT1_con_lsi_003.txt.gz
Lid_Strength_Index
13 13 12 12 12 12 12 13 13 14 14 14 14 14 14 15 15 15 15 15 16 15 15 16 16 16 16 16 16 17 17 17
13 12 12 12 12 12 12 12 13 13 13 14 14 14 14 15 15 15 15 15 16 16 16 16 17 17 17 16 17 17 17 17
13 12 11 12 12 12 12 13 13 13 13 13 14 14 15 15 15 15 15 15 15 16 16 16 17 17 17 17 17 17 18 18
12 12 10 11 11 12 12 12 13 13 14 13 13 13 14 14 14 15 15 15 15 16 16 16 16 16 16 16 17 17 17 18
13 12 11 12 12 11 11 11 12 13 14 14 14 14 14 13 14 14 14 15 15 16 16 16 16 16 16 17 17 17 17 17
11 12 12 12 12 12 12 11 11 13 14 14 14 14 14 13 13 13 14 14 14 15 15 15 16 16 16 17 17 17 18 18
11 13 12 12 13 13 13 12 12 12 13 14 14 14 14 14 14 14 13 13 14 14 15 16 16 14 14 16 17 17 18 19
12 13 13 12 13 14 14 13 14 13 13 13 13 14 15 15 15 15 14 13 14 14 15 16 15 13 13 13 16 17 17 18
11 12 13 12 13 13 13 15 15 14 14 13 14 15 14 14 14 14 14 14 14 14 14 15 15 13 12 13 15 17 17 18
11 12 13 13 13 13 13 14 15 15 14 15 16 17 15 15 15 15 15 15 14 14 14 15 15 13 12 12 15 17 17 18
12 13 13 13 13 13 13 15 15 14 14 15 16 16 15 15 15 14 16 16 15 15 15 15 15 13 12 11 13 17 18 18
13 14 13 13 13 14 14 15 14 15 16 17 16 16 16 15 14 15 16 16 17 17 16 16 16 15 12 11 13 16 17 19
13 13 13 13 14 15 16 15 16 17 18 18 18 18 16 17 15 15 16 17 17 18 17 17 16 15 14 12 11 14 17 18
14 15 14 14 15 16 16 16 18 20 21 21 20 20 19 18 17 16 15 16 16 17 18 18 17 16 14 13 12 14 17 17
14 16 16 15 15 17 17 18 20 22 22 22 22 22 21 19 18 16 15 15 15 16 17 18 18 18 17 15 13 14 15 16
16 17 17 17 18 19 19 21 22 23 23 23 23 23 23 21 19 17 14 14 14 15 16 17 18 18 16 15 14 15 16 18
18 19 20 21 22 22 22 22 24 24 24 24 24 23 23 23 22 17 15 12 11 11 13 15 14 14 14 12 11 13 15 18
21 21 22 23 23 23 23 24 24 25 24 24 24 24 24 23 22 22 17 12 10 10 10 12 13 13 13 12 12 12 14 18
22 23 23 24 24 24 24 25 25 26 25 25 25 25 24 23 22 20 19 17 15 12 11 10 11 11 12 12 11 14 15 18
22 24 26 27 28 26 26 26 27 26 26 26 25 25 24 23 22 20 19 18 14 15 13 12 9 9 11 11 13 15 16 19

GFSFLT1_con_lsi_006.txt.gz
Lid_Strength_Index
12 11 11 11 11 11 10 11 12 11 11 11 11 11 11 11 12 12 11 11 12 12 12 12 12 12 13 12 12 13 13 12
11 10 10 11 11 11 11 11 12 12 11 11 11 11 12 12 12 12 12 12 12 12 12 12 13 12 13 12 12 13 13 14
10 11 10 11 11 11 11 11 11 12 12 12 12 12 12 12 11 11 12 12 12 12 13 12 13 12 13 13 13 14 15 15
11 11 12 11 12 12 12 12 11 11 11 11 12 13 13 13 12 12 12 13 12 12 12 13 13 13 13 14 14 15 14 15
12 11 12 11 12 12 13 12 12 12 11 11 11 11 12 14 14 13 12 12 13 13 13 13 13 13 14 14 14 14 14 14
11 10 11 12 13 12 12 12 12 12 11 11 11 11 12 12 13 13 14 13 13 13 13 13 13 14 14 14 14 14 15 15
11 10 10 11 11 11 11 11 10 12 12 12 11 11 12 12 13 13 14 14 13 14 13 13 14 12 12 13 14 14 15 15
10 10 9 10 11 11 11 11 10 12 12 13 12 13 13 13 13 13 14 13 14 14 13 13 13 12 12 12 14 14 14 15
10 10 9 10 11 11 11 11 11 12 12 12 12 13 13 14 13 13 13 14 14 14 13 13 13 11 11 12 13 13 14 14
8 9 9 10 11 11 11 12 11 12 12 12 12 14 15 16 15 13 13 13 14 13 13 13 12 12 11 11 12 13 14 14
9 9 10 10 10 12 12 12 13 12 12 12 12 15 16 15 16 15 14 13 12 14 13 13 13 12 12 12 12 13 13 13
9 10 10 10 11 13 13 13 12 12 13 13 14 15 15 16 16 16 16 15 15 13 12 12 13 13 12 12 12 12 12 13
10 11 11 11 12 14 14 13 14 15 16 16 17 17 17 18 18 17 17 17 16 14 13 12 11 13 13 12 12 12 12 13
12 13 13 13 13 15 15 15 17 18 20 20 20 20 20 20 20 19 18 18 17 15 13 12 11 11 11 12 11 12 12 12
13 15 15 14 15 16 16 17 20 21 21 21 22 21 21 21 21 21 20 19 18 16 14 13 12 11 12 13 12 12 12 11
15 16 17 16 17 18 19 20 21 22 22 22 22 23 22 22 21 21 20 19 19 18 15 14 13 11 11 12 13 12 11 14
17 17 18 19 20 20 20 22 23 24 24 23 23 23 23 23 22 19 18 17 16 15 15 15 13 10 10 10 10 10 10 15
19 19 20 20 21 22 23 24 25 26 25 24 24 24 24 24 24 24 21 18 16 15 14 13 11 10 9 9 10 10 9 14
19 21 21 21 23 23 24 25 25 25 25 25 25 24 25 25 25 24 24 24 21 17 14 12 9 8 8 8 9 11 11 13
21 21 21 22 24 23 24 24 25 24 23 23 23 23 23 23 23 23 24 23 22 19 16 13 10 10 9 7 10 12 12 13

GFSFLT1_con_lsi_009.txt.gz
Lid_Strength_Index
10 9 9 9 9 9 10 11 11 11 11 11 11 11 11 11 11 11 11 11 11 11 11 11 11 11 11 11 11 11 12 12
10 10 9 10 9 9 10 11 11 11 11 11 12 12 12 13 13 12 11 11 11 11 12 12 12 12 12 12 12 13 12 13
10 11 11 10 10 11 10 10 11 12 11 11 11 12 13 14 13 13 12 12 11 12 12 12 12 12 12 13 13 13 13 13
12 11 12 10 11 11 11 11 11 12 12 12 12 12 13 13 13 13 13 13 12 12 12 12 13 12 12 13 13 13 13 13
11 11 10 10 11 11 10 10 10 11 11 12 12 12 12 13 13 13 12 12 12 12 12 12 12 13 13 13 14 13 13 13
11 10 10 9 10 10 10 10 10 10 11 11 11 11 12 13 13 13 12 12 11 12 12 12 12 13 13 13 14 14 14 14
10 10 10 9 9 9 10 10 10 11 11 11 11 11 11 12 12 13 13 11 11 12 12 12 12 11 11 12 13 14 14 14
9 9 9 9 8 9 10 9 10 11 11 11 11 12 12 12 13 13 13 12 12 12 12 13 12 10 10 10 12 13 14 14
8 8 8 8 9 9 10 10 11 11 11 11 11 12 12 12 14 14 14 14 13 13 12 12 13 11 10 10 11 12 13 13
7 7 8 8 8 10 10 11 11 11 11 11 11 12 12 13 14 14 15 15 15 14 14 13 12 11 11 10 11 12 12 13
7 7 8 8 9 11 11 12 12 12 12 12 12 13 14 14 14 14 15 15 15 16 15 15 14 11 10 10 11 12 12 12
7 9 9 9 11 12 12 13 13 13 14 14 15 16 16 16 16 17 17 17 18 17 17 16 16 15 11 10 11 11 12 12
9 10 10 11 12 14 14 13 15 16 17 18 19 19 18 20 20 20 20 21 21 20 19 17 15 14 12 10 9 9 11 12
11 12 12 12 13 15 15 15 17 19 20 20 20 20 20 21 22 22 22 22 22 21 21 19 16 15 12 10 9 8 10 10
13 14 15 14 14 15 16 17 19 21 21 21 22 22 22 22 22 23 23 23 23 22 22 20 19 17 14 12 10 10 9 9
14 15 15 15 16 16 17 18 20 21 22 23 22 22 22 22 22 22 22 21 23 22 22 21 21 19 15 13 13 11 11 11
15 16 16 17 17 18 18 19 22 23 24 24 24 23 23 23 23 19 19 18 17 17 17 18 16 14 13 13 12 11 9 11
17 17 18 18 19 19 19 21 23 25 25 25 24 24 24 23 24 24 22 18 18 18 17 17 16 14 13 12 11 10 10 11
18 19 20 20 20 19 19 21 23 24 25 24 24 23 22 22 22 22 23 24 23 20 19 18 17 15 13 11 10 12 10 10
20 20 20 21 21 19 20 22 23 25 25 24 23 22 21 20 20 20 21 21 21 21 19 18 16 15 13 10 11 10 10 10

GFSFLT1_con_lsi_012.txt.gz
Lid_Strength_Index
12 11 12 11 11 12 12 12 12 12 12 12 12 12 13 14 14 14 13 13 13 13 13 13 13 14 14 15 14 15 15 14
12 12 12 12 12 12 12 12 13 13 13 13 12 12 13 14 13 13 14 14 13 13 14 14 14 14 14 14 14 15 15 14
12 13 12 12 13 13 13 13 13 13 14 13 13 12 13 13 13 14 14 13 13 14 14 14 14 14 15 15 15 15 15 15
13 13 13 12 12 13 13 13 13 13 13 13 13 13 13 13 13 14 14 14 14 14 14 14 14 14 13 14 14 14 15 14
13 13 13 12 12 13 13 12 12 12 12 13 13 13 13 12 13 13 13 14 15 14 14 14 13 13 13 14 14 13 13 13
12 12 12 12 11 11 12 11 11 12 13 13 12 12 12 13 13 13 14 13 14 14 14 13 13 13 13 14 13 13 13 13
12 11 11 11 11 10 11 11 11 12 13 12 12 12 12 12 12 13 13 14 14 14 14 13 13 11 10 9 11 12 13 13
10 10 10 10 9 10 10 11 12 13 13 13 12 12 12 12 12 13 13 13 14 15 14 14 14 11 11 10 11 11 11 11
9 9 9 9 9 10 10 12 12 12 13 13 12 12 12 13 13 13 13 14 14 15 15 15 15 12 11 11 11 12 11 11
8 8 9 9 10 11 12 11 12 12 12 12 13 14 14 14 14 14 15 15 15 15 15 16 16 13 13 13 13 13 12 12
9 9 10 11 12 12 13 14 14 13 13 14 15 16 17 16 17 17 17 17 17 17 17 17 17 15 14 14 15 15 14 13
10 11 11 12 13 14 14 15 14 15 16 17 17 19 19 19 19 20 20 20 21 21 20 20 19 19 15 14 15 16 15 14
12 12 12 13 14 15 16 15 16 17 18 19 20 20 20 21 22 22 22 23 23 23 22 21 20 18 17 15 14 13 15 14
14 14 13 15 16 17 16 16 17 19 21 21 20 20 21 22 22 23 23 23 23 23 23 23 21 20 17 16 15 14 15 13
16 17 17 17 15 18 17 17 19 21 21 20 21 22 22 22 22 23 23 24 23 23 24 23 22 22 21 20 20 17 17 14
17 17 17 16 17 19 17 19 20 20 20 22 22 23 24 24 24 23 22 21 21 20 20 20 20 19 17 17 18 18 16 15
17 17 18 19 19 19 21 21 21 21 22 22 23 24 24 24 24 19 17 15 14 14 15 16 15 15 15 15 14 14 13 16
19 19 20 20 20 20 21 22 21 22 22 22 23 25 25 24 25 25 21 16 15 14 14 14 14 14 14 15 15 14 14 16
20 22 23 22 22 20 22 21 21 22 22 23 23 24 24 24 24 23 23 23 21 17 15 14 13 13 13 14 14 17 16 16
23 23 23 24 21 22 22 21 23 23 22 23 23 23 22 22 23 22 22 21 20 19 16 16 14 14 13 13 15 16 15 15

GFSFLT1_con_lsi_015.txt.gz
Lid_Strength_Index
12 12 13 12 12 13 13 13 13 13 13 13 13 13 13 14 14 14 14 14 13 13 12 13 14 14 15 15 15 15 15 15
13 13 13 13 13 13 13 13 13 13 12 12 12 13 13 14 14 14 14 14 14 14 14 13 12 14 15 15 15 15 15 15
13 13 12 13 13 13 14 14 13 13 13 13 12 12 13 14 14 14 15 15 15 14 14 14 13 13 13 14 13 15 15 14
14 14 14 14 14 14 14 13 12 12 13 13 13 13 13 13 13 13 13 14 15 15 15 14 13 13 13 12 13 13 13 13
13 13 14 14 14 13 13 13 13 13 13 14 14 14 13 13 13 13 13 14 14 14 13 13 13 13 13 12 12 12 12 13
13 12 13 13 12 12 12 12 12 12 13 13 13 12 12 13 13 13 13 13 13 14 14 14 14 13 13 13 13 12 12 12
12 12 12 12 12 11 12 12 12 12 12 12 12 11 11 11 11 11 11 12 12 13 13 14 14 12 11 11 13 13 13 13
12 12 11 11 10 11 11 11 13 13 13 13 12 12 11 11 12 12 13 13 13 13 13 14 14 11 11 11 13 14 14 13
10 11 10 10 10 10 11 12 12 13 13 13 12 13 13 13 14 14 14 14 14 14 14 15 15 12 12 12 13 14 14 14
10 10 10 11 11 11 12 12 12 12 13 13 15 16 16 17 17 16 17 17 17 17 17 18 17 14 14 14 15 15 16 15
10 10 11 13 12 12 13 14 14 14 14 15 16 18 18 18 19 19 19 19 19 19 19 20 21 17 16 16 17 18 17 16
11 12 13 13 13 14 15 16 15 16 16 17 17 19 20 20 19 20 21 21 22 22 21 21 20 20 17 15 16 17 18 17
12 13 13 14 15 16 17 15 17 18 19 20 21 21 19 21 21 21 22 23 23 23 23 21 20 18 17 16 15 15 17 18
15 15 14 16 17 18 17 17 18 22 23 23 21 20 20 22 22 23 23 24 24 23 23 23 21 20 16 15 15 15 17 17
17 18 19 18 17 19 19 19 25 25 22 20 21 21 21 21 21 23 25 25 24 24 24 22 20 18 16 17 18 17 17 17
18 18 18 18 20 22 20 22 22 21 20 21 21 21 22 21 22 22 22 21 21 20 19 19 19 17 14 13 15 15 14 16
18 19 20 22 22 22 23 25 24 21 20 20 21 22 22 22 22 18 17 16 16 15 16 17 14 12 12 11 11 11 11 14
19 19 23 23 22 23 24 26 26 23 21 21 21 23 23 23 23 24 21 16 16 16 15 14 13 12 11 11 11 10 11 15
22 24 25 26 24 22 25 27 27 25 22 22 23 23 23 23 23 23 24 24 22 17 16 14 14 13 12 11 11 15 14 16
25 24 25 27 24 24 26 26 27 23 22 22 23 23 22 22 22 22 22 22 22 21 18 18 16 14 14 14 18 18 18 17

GFSFLT1_con_lsi_018.txt.gz
Lid_Strength_Index
13 13 13 13 13 14 14 14 14 14 14 13 13 13 14 14 15 15 14 14 14 15 14 14 14 14 15 15 15 15 15 14
12 12 12 12 12 13 14 14 14 14 14 14 14 14 14 14 14 14 14 14 14 14 14 14 14 14 14 15 15 15 14 14
13 13 13 13 13 13 12 13 13 13 14 14 14 14 14 15 15 14 14 14 14 14 14 14 14 14 14 14 15 15 15 15
13 14 14 14 14 14 13 13 12 13 13 13 13 14 15 15 14 14 14 14 14 14 15 15 15 15 14 14 14 14 14 14
14 14 14 14 14 14 14 13 13 13 13 14 14 14 14 14 14 14 14 15 15 14 14 15 15 15 15 15 15 14 14 13
13 13 13 13 13 13 13 13 13 13 13 13 13 13 13 13 13 13 13 13 14 14 14 14 14 14 14 14 14 15 15 14
13 13 13 13 13 12 12 12 12 13 13 12 12 12 12 12 12 13 13 13 13 14 14 14 13 11 11 11 13 14 14 14
13 13 12 12 12 12 11 12 13 13 14 14 13 13 13 13 13 14 14 14 15 15 15 15 15 12 12 11 13 14 14 14
13 13 12 12 12 12 12 12 13 14 15 14 13 15 15 15 16 16 16 16 16 17 17 17 16 14 13 14 15 16 16 15
11 11 12 12 12 12 12 12 13 14 14 14 16 17 17 18 18 17 18 18 19 18 18 19 19 16 15 15 17 17 17 17
11 11 12 13 12 13 14 14 15 14 15 16 16 20 19 19 19 19 19 19 19 19 20 20 21 18 16 16 17 19 18 17
11 12 13 13 14 14 15 16 16 16 17 18 18 19 20 20 20 20 21 20 22 21 21 21 20 20 17 15 17 18 18 18
12 13 14 14 15 16 17 16 18 19 20 20 22 21 19 22 21 21 22 23 23 23 23 21 21 19 17 15 14 14 17 17
13 14 14 16 17 18 17 18 19 23 25 25 23 21 20 22 22 22 22 23 23 23 23 23 21 20 17 15 14 14 16 16
16 17 18 18 17 18 20 20 27 29 25 23 23 22 22 20 20 21 22 23 22 23 22 21 19 18 17 17 17 15 14 14
17 17 18 18 18 22 21 24 25 26 22 23 22 23 21 20 20 20 20 19 19 19 18 18 19 17 14 13 14 14 13 13
18 19 20 21 20 22 26 26 27 24 22 21 21 21 20 21 21 17 16 14 14 13 14 16 14 13 12 12 12 11 10 13
19 20 22 23 22 24 27 28 28 27 22 21 21 21 22 22 23 24 20 16 15 15 14 14 14 14 13 12 12 12 13 18
21 23 25 26 24 25 28 29 29 28 23 23 22 22 22 23 23 23 24 24 22 18 16 15 15 15 13 14 15 21 19 19
25 24 26 27 25 27 28 27 29 26 24 24 23 22 22 22 23 23 23 23 23 22 20 19 17 15 16 16 21 22 21 20

GFSFLT1_con_lsi_021.txt.gz
Lid_Strength_Index
14 14 14 15 15 15 15 15 15 14 14 14 15 14 15 16 16 16 16 15 15 15 15 15 15 15 15 15 15 16 16 15
13 13 12 13 13 13 13 14 14 13 14 14 14 14 14 14 15 16 15 14 14 14 15 15 15 15 16 16 16 16 15 15
12 13 13 13 13 13 13 13 13 13 14 14 14 14 14 15 14 14 14 14 14 14 14 15 15 15 16 16 16 16 16 15
13 13 13 13 14 13 13 13 13 14 14 14 14 15 15 14 14 14 14 14 15 14 15 15 15 15 15 16 16 16 15 15
14 14 13 14 14 14 14 14 13 14 14 14 14 14 14 14 14 15 15 15 15 15 15 15 15 15 15 15 15 15 15 15
12 13 14 14 14 14 14 13 14 14 14 14 14 14 14 15 15 15 15 15 15 15 15 15 15 14 14 14 15 15 15 15
13 13 13 13 13 13 14 13 13 14 14 14 14 14 14 14 14 14 14 14 14 15 15 15 14 12 12 12 14 14 15 16
13 13 13 13 12 13 13 13 15 15 16 16 14 14 14 15 15 15 16 15 16 16 16 16 16 14 12 13 14 15 16 16
13 13 13 13 13 13 13 14 14 15 16 15 14 16 16 16 17 17 17 17 17 17 17 17 17 14 14 14 15 16 16 17
12 13 13 13 13 13 14 13 14 14 14 15 16 18 17 19 19 18 18 19 19 18 18 19 19 16 15 15 16 17 17 17
12 13 13 14 13 13 14 15 15 14 14 15 16 20 20 19 19 19 20 19 19 19 19 20 21 17 15 15 16 18 17 16
12 13 13 14 14 14 15 16 15 16 17 17 18 20 20 21 20 21 21 20 22 21 21 21 20 19 15 14 16 17 18 17
12 13 14 14 14 15 16 15 17 18 18 19 23 22 21 26 23 24 23 23 23 23 22 20 19 17 15 14 13 13 16 16
12 14 14 16 16 16 16 17 18 21 22 25 24 22 22 26 23 23 24 24 23 22 22 21 19 18 15 13 13 12 14 14
15 15 17 18 16 18 18 18 23 23 23 23 24 24 24 21 21 22 22 22 22 22 21 20 17 16 15 16 15 13 13 13
14 15 17 18 18 19 19 21 23 23 22 23 24 25 22 21 21 20 19 19 19 17 16 17 17 16 12 12 13 13 13 12
17 17 19 20 20 21 23 24 24 22 21 22 22 22 21 21 21 16 14 12 12 12 13 15 13 12 12 12 11 11 11 16
18 19 21 22 21 21 22 25 25 25 23 23 21 22 22 22 23 23 19 14 14 14 14 13 13 13 13 12 13 14 16 22
20 22 23 24 23 21 24 24 24 27 24 25 24 24 24 24 23 23 23 23 22 18 16 15 14 14 13 14 17 24 22 23
24 26 25 26 22 25 28 26 26 27 25 25 25 25 23 23 22 22 22 23 23 23 20 20 16 15 16 17 25 24 24 23

GFSFLT1_con_lsi_024.txt.gz
Lid_Strength_Index
14 14 14 14 14 15 15 15 15 15 16 16 16 15 15 15 15 15 15 15 15 15 15 16 15 16 16 16 16 16 16 15
14 14 14 14 15 15 14 14 14 14 14 14 15 15 15 15 15 15 15 15 15 15 15 15 16 16 16 16 16 16 16 16
13 14 14 14 14 14 14 14 14 14 14 14 15 15 15 15 15 15 15 15 15 15 15 15 15 15 16 16 16 16 16 16
13 13 13 14 13 13 13 13 13 14 14 14 14 15 15 15 15 15 15 15 15 15 16 16 16 16 16 15 15 15 15 15
14 13 13 13 13 13 14 13 13 14 14 14 14 14 15 15 15 15 15 16 16 16 16 16 16 16 15 15 15 15 15 15
13 13 13 14 14 14 14 13 13 14 14 14 14 14 15 15 16 16 16 16 16 16 16 16 15 14 14 14 14 14 14 14
12 12 13 13 13 13 14 14 13 14 14 14 15 15 16 16 16 16 16 16 16 16 16 16 15 12 11 11 13 14 15 15
12 13 12 13 12 13 13 14 14 15 16 16 16 16 17 16 16 16 16 16 16 16 17 17 17 13 12 12 13 14 15 15
12 13 13 13 13 13 13 14 15 16 17 17 17 17 17 17 17 17 17 17 18 18 18 17 17 13 13 12 14 15 16 16
13 13 14 13 13 14 14 14 15 16 16 16 17 18 18 19 19 18 19 19 19 18 19 19 19 15 13 14 15 16 16 16
12 12 13 13 14 15 15 16 16 15 15 16 17 20 20 19 20 20 21 19 18 19 19 19 20 16 14 13 15 17 16 16
13 13 13 14 15 15 16 16 16 16 16 17 17 20 20 21 21 22 23 20 22 21 20 21 20 19 14 13 14 15 15 15
12 13 14 15 15 15 15 16 17 17 18 18 21 20 20 26 25 25 26 25 24 24 22 20 19 16 14 12 11 11 14 14
13 13 14 16 15 15 16 17 18 20 20 21 21 20 20 24 23 25 27 26 23 22 21 20 18 17 13 11 11 10 12 12
16 15 15 17 16 17 17 18 22 24 21 20 21 21 21 20 20 25 25 23 22 22 21 20 18 15 14 14 13 11 12 12
14 14 14 17 18 19 19 20 22 23 20 20 20 21 21 21 21 21 20 20 21 20 18 16 16 15 11 11 12 12 11 13
15 16 18 18 19 21 21 21 22 21 20 20 20 20 20 21 21 16 13 12 11 10 11 13 12 11 10 10 10 11 13 18
16 18 19 20 20 22 24 24 24 23 20 20 20 21 22 22 22 23 19 14 13 12 12 12 11 11 11 11 12 15 17 27
19 21 22 23 24 24 25 26 25 22 20 22 21 22 24 23 23 23 24 24 22 17 15 13 13 12 12 13 17 24 24 31
23 25 24 26 24 25 25 24 23 22 22 22 23 23 24 23 23 23 23 23 24 22 19 18 16 15 15 16 30 26 25 24

GFSFLT1_con_lsi_027.txt.gz
Lid_Strength_Index
15 15 16 15 15 15 15 15 15 15 14 14 14 15 14 14 15 14 14 14 14 14 14 14 14 14 14 15 15 15 15 14
14 14 15 15 15 15 14 15 15 14 14 14 14 14 13 13 13 13 13 14 14 14 14 14 15 14 15 15 15 15 15 14
13 14 14 15 15 15 14 14 14 13 13 13 13 13 13 14 14 13 14 14 14 14 15 15 15 15 15 15 15 15 15 14
14 14 14 14 14 14 14 14 13 13 13 13 13 13 13 13 13 13 14 14 15 15 15 15 15 15 15 15 15 15 15 15
14 13 14 14 13 14 14 13 13 13 13 13 13 13 13 13 14 14 14 15 15 15 16 16 16 16 15 14 14 14 14 14
13 14 14 14 13 13 13 13 13 13 13 13 12 13 13 14 14 15 15 16 16 16 16 16 16 14 13 13 13 13 13 13
13 13 13 13 13 12 12 12 12 12 12 12 13 14 14 15 15 16 16 17 17 17 17 17 15 13 11 11 12 13 14 14
12 13 12 13 12 12 12 13 13 13 14 14 14 14 15 16 16 17 17 17 17 17 16 16 16 13 11 11 12 13 14 14
12 12 12 12 13 13 13 13 13 13 14 15 15 16 17 17 17 17 17 17 17 17 17 16 16 13 12 11 13 14 14 14
12 12 13 13 13 13 14 13 14 14 14 15 16 17 17 18 18 17 17 17 18 16 17 18 18 14 12 12 13 14 14 14
13 13 13 13 13 14 14 15 14 14 14 15 16 18 18 17 18 18 19 17 17 18 18 18 19 16 13 12 13 14 14 13
13 13 12 13 14 14 15 15 14 15 16 16 17 18 18 19 18 20 20 19 21 20 19 19 19 18 13 12 12 13 13 13
13 13 13 14 14 14 14 15 16 16 17 18 20 18 19 22 21 22 22 22 22 22 20 18 17 15 13 11 10 10 12 13
13 13 13 15 14 14 15 16 17 18 20 21 21 20 20 22 21 20 21 21 21 19 19 18 16 16 13 11 10 9 10 10
15 15 14 16 15 15 16 17 19 21 20 20 21 20 21 18 19 20 21 20 20 20 20 19 17 16 13 13 12 10 10 10
14 13 13 16 17 18 17 18 20 20 20 20 20 21 19 18 18 18 18 19 22 21 19 18 17 13 10 9 10 10 10 13
15 16 15 17 18 20 20 19 20 20 20 20 20 20 19 19 18 15 13 12 11 10 10 10 9 9 9 9 8 8 11 19
14 15 19 19 19 21 22 22 22 20 20 20 19 20 20 20 20 20 18 15 13 12 10 10 10 9 10 9 9 12 15 23
20 22 21 21 22 23 24 24 25 25 21 21 21 21 21 21 21 20 21 23 21 17 14 13 11 11 10 10 14 22 22 24
23 25 23 24 25 26 25 24 26 24 23 23 23 23 22 21 21 21 22 22 22 22 19 17 14 13 13 15 23 25 24 23

GFSFLT1_con_lsi_030.txt.gz
Lid_Strength_Index
13 13 13 13 13 13 13 13 13 13 12 13 12 12 12 12 12 11 11 11 11 11 11 11 11 11 11 11 11 12 11 11
12 12 13 13 13 13 13 13 13 13 12 12 12 12 12 11 11 11 11 11 11 11 12 12 12 12 12 12 12 12 12 12
12 12 13 13 13 13 12 13 12 12 12 12 12 12 11 11 10 10 11 11 11 12 12 12 12 12 13 13 12 13 13 12
11 11 12 12 13 13 12 12 12 12 12 12 12 11 11 10 11 11 11 11 12 12 13 13 13 13 13 12 12 12 12 12
11 11 10 11 12 12 12 12 12 12 12 12 11 11 10 10 10 11 11 12 12 13 13 13 13 13 13 13 12 12 12 12
11 10 10 11 11 11 12 12 12 12 12 11 10 10 10 11 11 12 12 12 13 13 14 14 14 13 12 12 12 12 12 11
10 10 11 10 10 11 11 11 11 11 11 10 10 10 11 11 12 13 13 13 14 14 14 14 14 14 12 11 11 11 12 12
11 11 10 10 10 10 10 10 11 11 10 10 10 11 11 12 13 13 14 14 14 14 14 14 13 13 11 11 11 11 11 12
10 10 10 10 11 10 10 10 10 10 10 11 11 11 12 13 13 13 13 14 14 13 14 13 13 13 12 11 11 11 11 12
10 10 11 11 11 11 11 11 11 11 10 11 11 12 13 14 13 13 13 13 13 13 14 14 14 13 12 11 11 11 12 11
12 12 11 11 11 11 11 11 11 11 11 11 11 12 13 13 14 13 13 14 14 14 14 15 15 14 12 11 11 11 11 11
12 11 11 11 12 11 11 12 10 11 11 12 12 13 13 13 13 14 14 15 15 15 14 15 15 14 12 11 10 11 11 10
12 12 11 11 12 11 12 10 12 12 13 14 14 14 14 15 15 16 16 16 16 15 14 13 14 13 12 10 9 9 10 11
12 12 11 12 11 11 10 12 14 14 15 15 16 15 15 16 16 15 15 15 14 14 14 13 13 12 11 10 10 9 9 9
12 12 11 12 12 11 12 14 15 15 16 16 17 16 16 15 15 15 14 14 14 14 14 13 13 12 11 10 9 8 8 7
12 11 11 10 12 12 13 15 15 15 15 15 15 16 15 15 14 14 13 13 13 14 13 13 12 11 9 8 8 7 7 10
12 12 11 12 12 14 15 15 15 14 15 14 14 14 14 14 14 13 12 11 10 9 9 10 9 8 8 7 7 7 9 12
12 11 11 13 14 16 17 16 15 13 13 14 15 14 14 15 15 15 13 13 12 11 10 10 9 9 8 8 7 10 12 15
13 14 15 16 16 18 18 17 17 15 17 14 14 15 15 15 15 15 16 16 15 14 14 12 11 9 9 9 9 14 15 17
18 19 19 19 20 20 20 19 18 17 16 16 16 16 17 16 17 17 17 17 17 16 15 15 14 12 11 12 15 17 18 18

GFSFLT1_con_lsi_033.txt.gz
Lid_Strength_Index
12 13 13 13 13 13 13 13 13 12 12 13 12 12 12 12 12 12 13 12 12 12 12 11 11 11 10 10 10 11 10 10
12 12 13 12 13 13 13 13 13 13 13 13 13 12 12 12 12 12 12 12 12 11 11 11 11 11 11 11 11 11 11 11
12 12 13 13 13 13 13 13 13 13 13 13 13 12 12 12 12 11 12 11 12 11 11 11 12 11 12 12 11 12 12 11
11 12 13 13 13 13 13 13 13 13 13 13 13 12 12 12 12 11 12 11 12 12 12 12 12 12 12 12 12 11 11 11
11 11 12 12 12 12 12 12 12 13 13 13 12 12 12 11 12 11 11 11 12 12 12 12 12 12 12 12 11 11 11 10
11 11 11 11 12 12 12 12 12 13 13 12 12 11 11 12 11 11 12 11 11 12 12 12 13 12 12 11 11 11 11 10
11 11 10 10 11 11 11 12 12 12 12 12 12 12 12 12 12 12 12 12 13 13 13 13 13 12 12 11 11 10 11 11
11 10 10 10 10 10 10 11 12 13 13 13 12 12 12 12 12 12 12 12 13 13 13 13 13 11 11 10 11 11 10 11
10 10 10 9 9 9 10 11 12 12 12 12 12 12 12 12 12 12 12 13 13 13 13 13 12 11 11 10 11 10 10 10
9 9 10 11 11 12 12 12 12 12 12 12 12 12 12 13 13 12 13 13 13 13 13 13 12 11 11 11 11 11 10 10
11 12 12 12 13 14 14 13 12 12 11 11 11 12 12 12 13 12 12 13 13 12 12 13 14 12 11 10 11 11 11 10
13 13 13 13 14 14 13 13 11 12 12 12 12 12 12 12 12 13 14 13 14 14 13 13 13 13 11 10 10 10 10 10
14 14 13 14 13 13 13 11 12 12 13 13 13 13 13 14 14 14 14 15 15 14 14 13 13 12 11 9 8 8 10 10
14 14 13 13 13 13 12 12 13 14 14 14 14 14 14 15 15 15 15 14 13 13 13 12 11 12 10 9 8 8 9 9
14 14 14 13 13 11 12 13 14 14 15 15 16 15 15 14 14 14 13 13 13 12 12 11 11 11 10 10 10 8 8 7
14 13 12 12 12 12 13 14 14 14 15 14 15 15 15 14 13 13 12 11 12 12 12 12 12 10 9 9 9 9 8 7
13 13 12 11 12 12 13 14 14 14 14 13 13 14 13 13 14 11 10 10 10 10 11 11 9 8 8 7 7 7 8 11
12 12 12 13 13 15 16 16 16 13 13 13 14 13 13 13 13 13 12 10 10 9 9 8 8 8 8 8 7 8 11 14
13 15 15 16 17 17 17 17 17 14 16 13 14 13 13 13 13 14 14 15 14 12 11 11 10 10 9 8 8 12 13 16
17 19 19 19 21 20 19 18 17 15 15 15 14 15 15 15 15 16 16 16 16 15 14 13 12 11 10 9 13 15 16 17

GFSFLT1_con_lsi_036.txt.gz
Lid_Strength_Index
14 14 15 15 15 15 15 15 15 15 15 15 15 15 15 15 16 16 16 16 16 16 16 16 16 16 15 15 14 14 14 13
14 15 15 15 15 16 16 16 16 15 15 16 16 16 15 16 16 16 16 16 16 16 16 16 16 16 15 15 14 14 14 14
14 14 15 15 15 16 16 16 16 16 16 16 16 16 16 16 16 16 16 16 16 16 16 16 16 15 15 15 14 14 14 13
14 15 15 15 15 16 16 16 16 16 16 17 17 16 16 16 16 16 16 16 16 16 16 16 15 15 15 14 14 13 13 13
14 14 15 15 15 16 16 16 16 16 17 17 17 16 16 16 16 16 16 17 17 16 16 15 15 15 14 14 13 13 13 12
13 14 15 15 15 15 15 16 15 16 17 16 16 16 16 16 16 16 16 16 16 16 16 15 15 14 14 13 13 13 13 12
13 14 14 15 15 15 15 16 15 16 16 16 16 16 16 16 16 16 16 16 16 16 16 16 14 12 12 12 13 12 12 12
13 13 13 14 14 15 15 15 16 16 16 17 16 16 16 16 16 16 17 16 16 16 16 15 15 12 11 11 12 12 12 11
12 12 13 13 14 14 15 16 16 16 16 17 16 16 17 17 17 17 16 16 16 16 15 15 15 11 11 11 12 12 11 11
12 12 12 13 13 14 15 16 16 16 16 16 16 17 16 17 17 17 16 16 16 16 16 16 16 11 10 10 12 12 11 10
13 14 13 14 14 14 15 15 16 16 15 15 16 16 16 16 17 16 17 15 15 15 16 16 18 11 10 10 12 16 12 11
14 14 15 15 15 16 16 15 16 16 16 16 16 15 15 16 17 16 17 16 17 17 18 18 16 15 10 9 11 12 13 12
16 16 16 16 16 17 16 16 17 17 17 17 17 15 15 15 18 17 17 19 20 21 20 17 15 13 11 9 8 9 11 12
17 17 16 17 16 16 16 17 17 18 18 19 18 17 17 17 18 19 19 18 19 17 17 16 14 14 9 9 8 7 9 9
17 18 18 18 17 18 17 17 18 18 18 18 18 19 19 18 17 18 18 18 17 17 16 18 15 14 14 13 13 10 9 9
17 17 17 18 18 19 18 17 18 18 18 19 19 19 19 19 19 17 18 16 19 19 18 17 17 15 12 13 15 14 11 11
18 18 18 18 19 19 18 17 17 18 18 18 18 19 19 19 20 12 12 11 9 9 13 18 11 10 8 8 7 6 5 12
16 18 18 19 19 21 20 18 18 18 18 17 17 18 18 19 18 20 15 9 9 9 8 8 8 7 7 7 6 6 7 20
17 19 19 19 23 23 22 20 20 21 18 18 19 19 19 19 19 19 19 20 18 12 11 10 9 9 8 8 8 10 11 24
20 22 22 23 25 25 24 21 21 20 21 19 19 20 19 18 19 19 20 20 20 20 16 14 11 10 9 8 11 14 16 19

GFSFLT1_con_lsi_039.txt.gz
Lid_Strength_Index
16 16 15 15 16 16 16 15 15 15 15 15 16 16 16 16 17 17 17 17 17 17 17 17 17 17 17 17 17 17 17 16
16 16 16 16 16 16 16 16 16 16 16 17 17 16 17 17 17 18 18 18 17 17 17 17 18 17 18 18 17 17 17 16
15 16 16 16 16 16 16 16 16 16 17 17 17 17 17 17 18 18 18 17 17 17 17 18 18 17 18 17 17 17 16 15
16 16 16 16 16 16 16 16 17 17 17 18 18 18 18 18 18 18 18 18 18 18 18 18 18 18 17 17 16 16 15 14
15 15 15 16 16 16 17 16 17 17 18 18 18 18 18 18 18 18 18 18 18 18 18 18 18 17 17 17 16 15 14 13
14 15 15 16 16 16 16 16 16 17 18 18 18 18 18 18 17 17 17 18 18 18 18 18 18 17 17 16 15 15 14 14
13 14 15 16 16 16 16 16 16 17 18 18 18 18 17 17 17 17 18 18 18 18 18 19 17 14 13 14 14 13 13 14
13 14 14 15 15 16 16 16 16 17 18 18 17 17 17 17 17 18 18 18 19 19 18 18 17 12 11 11 13 13 13 13
13 13 14 14 15 15 15 16 16 17 17 17 17 17 17 17 18 18 19 19 19 18 18 17 16 12 11 10 13 13 13 13
12 12 14 14 15 15 16 16 16 16 16 16 16 17 17 18 18 18 18 19 19 18 18 17 17 11 10 10 13 13 13 12
13 13 13 14 15 15 16 16 16 16 16 16 16 16 17 17 18 20 19 17 17 17 17 17 18 12 10 10 13 17 14 13
13 13 13 14 14 15 16 16 15 16 17 17 16 16 16 17 19 20 18 18 19 18 18 17 17 16 10 9 12 13 15 14
15 15 15 15 14 15 15 15 17 17 17 17 17 17 18 18 21 20 19 18 19 19 19 18 17 15 11 10 9 9 14 14
15 16 17 17 15 15 16 18 18 18 18 19 20 19 19 18 19 19 18 17 18 18 18 18 17 16 11 10 9 7 9 10
17 17 18 19 18 20 18 18 19 19 20 21 20 21 22 19 18 17 18 18 18 18 18 19 18 16 15 14 12 9 8 8
18 18 19 20 20 21 19 19 19 21 21 21 21 20 21 20 19 18 19 17 20 18 19 20 19 16 13 13 16 16 13 13
20 20 21 21 21 22 20 19 19 20 20 20 20 21 21 20 21 14 14 12 11 11 16 19 13 10 9 8 8 7 8 11
20 20 20 20 21 24 22 19 19 19 20 20 20 20 20 21 20 20 18 11 10 10 9 9 10 9 8 7 6 6 6 9
20 21 20 21 24 25 24 22 22 22 19 19 20 20 21 21 21 21 22 21 20 14 12 11 10 9 9 8 8 11 11 16
22 23 23 24 27 26 25 22 23 22 22 22 22 23 21 21 21 22 21 21 20 18 16 16 13 12 11 11 17 19 17 19

GFSFLT1_con_lsi_042.txt.gz
Lid_Strength_Index
15 15 14 14 15 16 15 15 15 15 15 15 16 16 17 17 18 18 18 18 19 19 19 18 18 18 18 19 18 18 18 18
16 16 15 15 16 16 16 16 16 16 16 16 17 17 17 18 18 18 18 19 19 19 19 18 18 18 19 19 18 18 18 18
16 16 17 16 16 16 17 16 16 16 17 17 17 17 18 18 18 19 18 19 19 19 19 19 19 19 19 19 18 19 18 18
16 17 17 16 16 17 16 16 16 17 17 18 18 18 18 18 19 19 19 19 19 19 19 19 19 19 18 18 18 18 18 17
16 16 16 16 16 16 17 16 17 17 17 18 18 18 18 18 19 18 18 18 19 19 19 18 18 18 18 18 18 18 17 17
15 16 16 16 16 16 16 17 17 17 18 18 18 18 19 18 18 18 18 18 18 18 18 18 18 18 18 18 18 18 17 17
14 15 16 16 16 16 16 17 17 17 18 18 18 18 18 18 18 18 18 19 18 18 19 19 18 15 14 16 17 17 17 16
14 14 15 15 15 16 16 17 17 18 18 18 18 18 17 17 17 18 18 18 18 18 19 19 19 14 13 13 17 16 16 15
13 13 14 14 15 15 17 17 17 18 17 17 17 17 17 17 17 18 18 18 18 19 19 19 18 14 12 12 15 16 15 14
12 13 14 15 15 16 18 18 17 18 17 17 17 17 17 17 17 17 18 18 19 19 19 19 19 13 12 12 15 14 14 13
14 15 15 15 16 17 18 18 18 17 16 16 16 16 17 16 17 17 17 17 18 18 19 19 19 13 11 11 14 17 14 14
14 14 15 16 16 17 17 17 16 16 16 16 16 16 16 16 17 19 18 19 19 19 20 20 19 18 11 9 13 13 15 15
15 15 15 16 15 16 16 15 15 16 17 16 16 16 17 17 19 19 18 19 20 21 23 20 18 15 12 9 8 10 15 15
15 16 16 15 14 15 15 17 17 17 17 17 17 18 18 18 20 20 20 19 20 19 18 18 18 17 11 10 9 8 10 11
16 16 18 17 17 16 17 17 17 17 18 19 19 20 20 19 19 19 19 19 18 19 17 20 19 17 16 15 14 11 9 9
17 17 18 19 19 19 19 18 18 19 20 20 20 20 21 22 20 19 22 17 19 18 19 21 20 18 14 15 17 16 14 13
20 20 21 20 20 20 19 18 19 21 21 21 21 22 22 22 24 16 15 13 12 12 17 21 14 12 11 10 9 9 9 12
20 20 21 21 22 25 24 21 20 20 22 22 22 22 22 23 21 21 18 12 11 10 10 10 12 10 9 8 8 7 7 9
21 22 22 23 25 27 26 24 25 24 21 21 22 21 22 21 21 22 23 22 21 15 13 11 11 11 10 10 10 16 17 20
23 25 24 25 27 27 26 24 25 23 23 24 23 23 22 22 23 23 23 23 24 20 16 17 14 14 13 13 25 27 27 26

GFSFLT1_con_lsi_045.txt.gz
Lid_Strength_Index
15 14 13 12 12 12 12 14 14 15 16 16 16 16 16 17 17 18 18 18 18 19 19 19 19 19 19 19 20 20 20 19
15 15 14 14 14 14 14 15 15 16 16 17 17 17 17 17 18 18 18 19 19 19 19 19 19 19 19 20 20 19 19 19
16 16 15 15 15 14 15 16 16 16 17 17 18 18 18 18 18 18 19 19 19 19 19 19 19 19 19 19 19 19 19 19
17 16 16 16 15 15 15 16 17 17 17 18 18 18 18 18 19 18 19 19 19 19 19 19 19 19 19 19 19 19 19 19
16 16 16 15 15 15 16 16 17 17 18 18 18 18 18 18 19 18 19 19 19 19 19 19 19 18 18 18 19 19 18 18
15 16 16 16 16 15 16 16 17 17 18 18 18 18 18 19 19 19 19 19 19 19 19 19 18 18 18 18 18 19 19 18
14 15 15 16 16 16 16 17 17 17 17 17 18 18 18 18 19 19 19 19 19 19 18 18 18 15 15 17 18 18 18 18
14 14 14 15 15 16 16 16 17 17 18 18 18 18 18 18 19 19 19 19 19 19 19 18 18 14 14 14 18 18 18 18
13 13 14 14 15 15 16 17 17 18 18 18 18 18 18 18 18 19 19 19 19 19 18 18 18 14 13 13 17 18 18 18
11 12 13 15 15 16 17 17 17 18 18 18 18 18 18 18 19 19 18 19 18 18 18 18 18 14 13 13 17 16 17 17
13 14 14 15 16 17 18 18 18 18 17 17 17 17 18 18 18 18 17 17 18 18 18 18 17 14 12 12 16 18 17 16
15 15 16 16 17 17 18 18 17 17 17 17 17 17 17 17 17 17 17 17 18 18 18 18 18 18 12 12 16 15 17 16
16 17 17 17 17 18 18 17 17 17 17 17 16 16 16 16 16 17 17 17 18 18 19 19 19 17 14 12 11 12 16 15
17 17 17 18 17 17 16 16 16 16 15 15 16 16 15 15 16 17 17 18 18 19 19 19 20 19 14 12 10 9 10 13
16 17 17 16 16 15 16 16 15 16 16 16 16 17 17 16 18 18 19 19 19 20 19 20 21 20 18 17 15 12 10 10
17 18 19 18 18 18 18 16 16 17 19 19 18 18 20 20 20 19 22 18 19 20 20 22 22 20 16 17 19 20 15 15
19 19 20 20 20 20 19 17 18 19 20 20 20 21 21 21 23 17 17 15 15 15 18 22 15 13 12 11 10 10 9 14
21 22 21 22 24 24 23 20 19 19 21 21 21 22 22 23 21 21 20 14 13 12 12 13 14 11 10 10 9 9 9 12
22 23 24 25 27 27 26 24 24 23 23 23 24 23 24 23 22 21 20 20 22 14 12 12 12 12 12 11 15 20 19 21
24 24 24 25 27 27 25 24 24 23 24 25 25 25 23 23 23 23 23 24 25 23 19 19 14 14 14 16 25 29 30 31

GFSFLT1_con_lsi_048.txt.gz
Lid_Strength_Index
15 15 13 12 11 11 10 11 13 13 14 14 14 14 15 16 17 17 17 18 19 19 19 19 19 19 19 19 19 19 20 19
15 15 14 13 12 11 12 13 14 14 15 16 15 15 16 16 17 17 18 19 18 18 19 19 19 19 19 19 20 20 20 20
15 15 15 14 14 13 12 13 13 15 16 17 17 16 17 17 17 18 18 18 18 19 19 19 19 19 19 20 20 20 20 20
16 16 15 15 14 13 13 13 14 16 16 17 18 17 17 17 18 18 18 19 19 19 19 19 19 19 19 19 19 19 19 19
16 16 15 15 14 14 14 14 15 16 16 17 18 17 17 18 18 18 19 19 19 19 19 19 19 19 19 19 19 19 18 18
15 16 16 16 15 14 14 15 16 16 17 17 17 17 17 18 18 18 19 19 19 19 19 19 19 19 19 19 19 19 19 19
14 15 16 16 15 15 14 15 16 16 16 16 17 18 18 18 18 19 19 19 19 19 20 20 19 17 16 18 18 18 19 19
13 14 14 15 15 15 15 15 16 16 16 17 18 18 18 18 19 19 19 19 20 20 20 20 19 16 14 15 18 18 18 19
12 13 13 14 15 15 15 16 16 16 17 17 18 18 18 18 19 19 19 19 20 20 19 19 19 15 14 14 17 18 18 18
11 12 13 14 15 16 17 17 17 17 17 17 17 18 18 19 19 19 19 19 19 19 19 19 18 14 13 13 16 17 17 18
13 13 14 15 16 17 17 18 18 17 17 17 17 17 18 18 19 19 18 19 19 19 18 18 17 14 12 13 15 16 16 17
16 16 16 17 17 18 18 18 18 18 18 18 17 17 17 18 18 18 18 19 19 18 18 17 17 16 13 12 15 15 16 16
17 17 18 17 18 19 19 18 19 19 19 18 17 17 17 17 18 18 18 18 19 18 18 18 18 16 14 12 12 13 15 16
18 18 18 19 18 19 19 19 19 18 18 17 17 16 16 17 17 18 17 18 18 18 18 18 19 18 14 13 12 11 13 14
17 18 17 16 15 16 16 16 15 16 16 16 16 16 16 15 16 16 17 17 17 18 17 17 20 19 19 17 15 13 12 12
16 17 19 19 18 17 16 15 15 16 17 16 16 16 17 18 17 17 18 15 16 17 17 20 21 20 18 17 19 18 16 20
19 20 21 22 23 23 20 18 18 19 19 18 19 19 19 20 21 17 17 15 15 16 18 22 17 15 13 12 12 12 12 20
21 22 24 25 26 26 25 21 20 20 20 20 21 21 21 21 21 21 18 15 15 15 16 16 15 13 12 11 10 11 12 17
23 25 26 26 27 27 25 23 22 22 22 22 23 22 22 22 22 21 20 21 23 14 13 11 11 11 11 12 15 19 19 20
25 26 26 27 28 28 26 24 23 23 24 24 24 24 23 23 24 24 23 23 23 22 19 19 13 13 15 17 21 22 24 25

GFSFLT1_con_lsi_051.txt.gz
Lid_Strength_Index
13 14 14 12 11 10 10 9 10 10 11 11 12 12 12 13 14 16 16 17 17 18 17 17 17 17 17 17 17 16 17 17
13 14 14 13 12 11 10 10 12 11 12 12 12 13 14 14 14 16 17 17 18 18 18 18 18 17 17 17 17 17 18 18
13 14 14 13 13 12 11 11 11 12 13 13 13 14 15 14 15 16 17 18 18 18 18 18 18 17 17 18 18 18 18 18
14 14 14 14 13 12 12 11 12 13 14 14 15 14 14 15 16 17 17 18 18 18 18 18 18 18 18 18 18 18 18 18
14 14 14 14 14 13 12 12 13 14 14 15 15 15 15 15 16 17 17 18 18 18 18 18 18 18 18 18 18 18 18 18
13 13 14 15 14 13 13 13 13 14 14 15 15 15 15 16 16 17 17 18 18 18 18 18 18 18 18 18 19 19 19 19
12 13 14 14 14 14 13 13 14 14 14 14 16 16 16 16 17 17 18 18 18 19 19 19 19 16 16 18 19 19 19 19
11 12 12 13 13 14 13 13 15 14 15 16 16 17 16 17 17 18 18 18 19 19 19 19 18 15 15 16 19 19 18 17
10 11 11 12 14 14 14 14 15 15 15 16 17 17 17 17 17 18 18 19 19 19 19 19 19 15 15 16 19 18 17 16
11 11 11 13 14 15 16 16 16 16 16 16 16 17 17 18 18 18 18 18 18 18 19 19 19 15 15 16 18 17 16 16
14 13 13 14 15 16 17 17 17 17 16 17 17 18 18 17 18 17 17 18 18 19 18 18 19 15 15 14 15 15 16 16
16 16 16 16 17 17 18 18 17 17 18 18 17 18 17 18 18 18 18 19 19 19 19 18 18 16 13 12 14 14 15 15
17 17 17 17 17 18 18 18 18 18 18 18 18 17 17 18 18 17 18 18 19 19 19 18 18 16 14 13 12 12 14 14
18 18 19 19 18 18 19 19 19 19 19 18 18 17 17 17 17 18 17 18 18 18 18 19 19 17 14 13 11 10 12 13
17 17 17 17 17 17 17 16 16 16 17 17 17 17 16 16 16 16 16 16 17 17 17 17 18 18 17 15 13 12 11 11
17 18 19 19 19 18 15 14 14 15 16 15 15 16 16 16 16 16 15 14 15 16 16 16 17 16 15 15 16 16 16 21
19 21 22 22 23 23 21 15 16 17 17 17 16 16 17 18 19 15 15 13 13 14 15 18 16 15 14 14 14 14 14 19
22 23 24 25 25 25 24 21 21 20 19 19 19 19 19 19 19 20 17 14 15 15 15 16 15 14 13 12 12 11 12 17
24 25 25 25 27 27 24 22 23 24 23 23 23 22 21 21 21 19 17 17 17 14 15 14 13 12 12 11 15 19 19 19
25 26 26 26 27 27 26 24 24 23 24 25 24 23 23 22 22 22 22 22 22 19 17 18 12 14 16 17 20 20 20 21

GFSFLT1_con_lsi_057.txt.gz
Lid_Strength_Index
5 5 6 6 6 6 6 6 6 6 6 5 5 4 4 4 5 5 5 6 6 7 9 11 11 11 11 11 11 12 11 12
6 6 6 7 6 6 6 6 6 6 6 6 6 5 5 6 5 6 6 7 9 10 11 12 13 12 12 13 13 13 14 14
6 6 6 7 7 7 6 6 6 6 7 7 6 6 6 6 6 6 7 8 9 10 12 12 14 14 13 14 14 14 15 15
5 5 5 6 6 7 7 6 6 6 7 7 7 7 6 6 6 7 8 11 11 13 14 14 15 16 15 15 15 15 16 15
5 5 4 5 6 6 6 6 6 7 7 7 7 7 7 7 7 8 10 12 12 14 14 14 15 16 16 16 16 16 16 16
5 5 4 4 5 6 6 7 7 7 8 8 8 7 7 8 8 10 11 12 13 15 15 16 16 17 16 16 16 16 17 17
5 5 5 5 5 6 7 7 7 8 8 8 9 9 10 10 11 12 13 14 15 16 16 17 17 15 14 16 17 17 17 18
5 5 5 5 5 6 6 7 9 9 11 11 11 11 11 12 13 13 14 14 16 16 16 17 17 15 14 15 17 17 17 18
5 4 4 5 6 6 8 9 10 11 12 12 12 13 13 13 13 14 14 15 16 16 16 16 17 14 14 15 17 17 17 17
6 7 7 7 8 10 11 11 11 12 12 12 13 14 13 14 14 14 15 15 16 16 16 17 17 14 14 15 16 17 17 16
9 9 9 10 10 12 12 13 13 13 13 13 13 14 14 14 15 15 15 15 16 17 16 16 16 14 13 15 16 17 17 16
10 10 11 11 12 13 13 14 14 14 14 14 14 15 14 14 14 15 16 17 17 17 17 16 15 14 13 14 16 16 17 17
11 12 12 13 13 13 15 15 15 15 15 16 15 15 15 15 15 16 16 17 17 18 18 17 15 14 13 13 14 14 16 16
13 14 14 14 13 15 16 15 16 16 17 16 15 15 14 15 16 16 16 16 17 18 18 17 16 15 13 12 13 13 14 13
14 14 15 14 15 15 15 15 15 16 16 15 15 15 15 14 15 15 15 16 16 16 16 16 16 16 14 13 12 13 12 12
14 15 16 15 16 15 14 14 14 15 15 15 15 15 15 14 14 14 14 13 14 14 14 14 15 15 14 13 13 12 11 12
16 17 18 17 17 16 15 14 14 14 14 14 14 14 14 15 14 12 12 12 12 11 12 13 12 12 13 12 11 11 10 13
18 19 18 18 18 18 16 12 12 13 14 14 14 15 15 15 15 16 15 13 13 13 13 14 13 13 12 11 11 10 10 14
19 19 19 20 21 20 16 14 13 13 13 13 14 14 14 14 14 14 15 15 16 14 14 13 13 13 12 11 12 14 13 13
21 21 21 22 22 21 18 17 15 15 15 15 15 14 15 15 14 14 14 15 16 16 15 14 13 13 13 13 14 14 16 16

GFSFLT1_con_lsi_060.txt.gz
Lid_Strength_Index
8 8 8 8 8 7 7 8 7 7 7 7 6 6 6 6 7 7 6 6 7 8 8 8 8 8 8 9 9 10 10 10
8 8 8 8 8 8 8 8 8 7 7 7 7 7 7 7 7 7 7 8 8 8 8 10 10 10 9 11 11 11 12 13
8 8 9 9 9 8 8 8 8 8 8 8 8 7 7 8 8 8 8 9 10 11 12 13 13 12 11 12 11 12 13 14
7 8 8 8 8 8 8 8 8 8 8 8 8 8 8 8 8 8 9 10 12 12 13 14 13 14 12 12 12 12 13 14
8 8 8 8 8 8 8 8 8 8 8 9 9 8 8 8 9 9 10 12 13 14 13 14 14 15 14 14 14 14 14 15
8 8 8 8 8 8 8 9 8 8 9 8 10 9 9 10 11 11 12 13 14 15 15 15 15 15 15 15 15 15 16 16
8 8 8 8 7 7 8 9 9 9 9 9 10 11 12 12 12 13 14 14 15 15 15 15 15 13 13 14 15 16 16 17
7 7 7 7 7 8 8 9 10 11 13 14 13 13 12 13 13 14 15 15 16 16 15 16 16 13 13 13 16 16 16 17
7 7 8 8 8 9 11 12 12 14 14 15 14 15 15 15 15 15 16 16 17 17 16 16 16 14 13 14 16 16 16 16
9 10 10 10 11 13 13 13 13 13 14 14 15 16 16 17 17 17 17 18 19 16 16 16 16 14 13 15 16 17 17 16
11 11 11 12 12 13 13 14 14 13 13 14 15 16 17 17 18 18 19 17 16 16 16 16 16 13 13 15 16 17 17 16
11 11 12 13 14 13 14 15 15 16 16 17 16 17 17 17 19 19 19 17 17 17 17 16 15 14 13 14 16 16 17 17
12 12 13 14 15 15 16 16 17 17 17 18 19 17 17 18 19 19 20 18 17 17 17 16 15 14 12 13 14 14 16 16
14 14 14 16 16 16 16 16 18 18 18 18 18 17 17 18 19 18 19 18 17 17 18 18 17 16 13 13 13 13 15 15
15 14 14 16 15 17 17 16 18 18 18 16 15 17 18 17 17 18 18 18 17 17 17 17 17 16 14 13 13 13 13 13
15 15 16 15 15 15 16 15 16 18 16 15 15 15 17 16 17 15 15 15 17 17 16 17 19 17 14 13 13 12 13 13
16 16 18 18 16 15 14 14 14 15 16 15 15 15 15 14 13 11 11 11 11 11 12 13 13 12 12 12 12 11 11 13
18 19 17 17 18 18 16 13 14 14 15 15 15 16 16 15 15 16 14 12 12 12 12 12 12 11 11 11 11 10 11 16
17 18 19 19 21 21 19 13 13 13 13 14 14 14 14 14 15 15 16 17 17 14 14 13 12 12 12 11 12 17 15 15
19 21 21 22 23 22 18 17 16 15 15 15 15 14 14 14 14 14 16 17 17 17 17 15 12 13 13 13 19 22 25 24